Hourly Data Report for September 04, 2017

All times are specified in Local Standard Time (LST). Add 1 hour to adjust for Daylight Saving Time where and when it is observed.

PENTICTON A
BRITISH COLUMBIA

49°27'45.000" N
119°36'08.000" W
344.40 m
1126146
71889
YYF

Download Data

Hourly Data (September 2017)
Hourly Data Report for September 4, 2017
Temp Definition
°C
Dew Point Temp Definition
°C
Rel Hum Definition
%
Wind Dir Definition
10's deg

Wind Spd Definition
km/h
Visibility Definition
km
Stn Press Definition
kPa
Hmdx Definition


Wind Chill Definition


Weather Definition


TIME
00:00 Legend Double Dagger 21.6 8.8 43 35 16 9.7 97.88     Smoke
01:00 Legend Double Dagger 20.9 8.7 45 34 12 9.7 97.95     Smoke
02:00 Legend Double Dagger 21.0 8.9 45 34 14 9.7 97.98     Smoke
03:00 Legend Double Dagger 19.2 8.9 51 31 13 9.7 98.01     Smoke
04:00 Legend Double Dagger 19.2 9.0 51 34 16 9.7 98.05     Smoke
05:00 Legend Double Dagger 18.7 9.3 54 34 16 9.7 98.09     Smoke
06:00 Legend Double Dagger 18.3 10.1 59 34 13 12.9 98.15     LegendNANA
07:00 Legend Double Dagger 20.8 12.0 57 35 11 12.9 98.19     Clear
08:00 Legend Double Dagger 23.3 13.1 52 35 10 12.9 98.20 26   LegendNANA
09:00 Legend Double Dagger 24.8 12.3 45 36 18 19.3 98.17 27   LegendNANA
10:00 Legend Double Dagger 26.4 11.8 40 36 12 24.1 98.13 29   Mainly Clear
11:00 Legend Double Dagger 27.9 11.6 36 36 22 24.1 98.06 30   LegendNANA
12:00 Legend Double Dagger 29.4 11.7 33 35 22 24.1 97.97 32   LegendNANA
13:00 Legend Double Dagger 29.6 11.7 33 36 25 24.1 97.92 32   Mainly Clear
14:00 Legend Double Dagger 30.5 11.1 30 36 21 24.1 97.84 32   LegendNANA
15:00 Legend Double Dagger 29.8 12.2 33 33 14 19.3 97.77 32   LegendNANA
16:00 Legend Double Dagger 29.0 12.8 36 34 11 19.3 97.71 32   Clear
17:00 Legend Double Dagger 26.6 13.5 44 34 9 24.1 97.65 30   LegendNANA
18:00 Legend Double Dagger 23.8 12.0 47 1 7 24.1 97.63 26   LegendNANA
19:00 Legend Double Dagger 24.4 10.6 41 36 13 19.3 97.65 26   Mostly Cloudy
20:00 Legend Double Dagger 22.7 9.4 42 34 9 16.1 97.70     LegendNANA
21:00 Legend Double Dagger 22.3 9.9 45 5 3 16.1 97.71     LegendNANA
22:00 Legend Double Dagger 19.9 11.1 57 36 3 16.1 97.73     Cloudy
23:00 Legend Double Dagger 16.3 10.0 66 3 4 19.3 97.77     LegendNANA

Notes on Data Quality.

Legend

  • E = Estimated
  • M = Missing
  • NA = Not Available
  • ‡ = Partner data that is not subject to review by the National Climate Archives
Date modified: